This demonstration page uses our WeatherBlox Daily Observations layout. Learn more.

Left ArrowRight Arrow

Hourly Observations for November 4, 2020

Temp ( °F °C ) Dew Point ( °F °C ) Humidity (%) Winds ( mph kmh ) Pressure ( in mb ) Visibility ( mi km ) Precip ( " mm )
12:15 am 00:15 Clear 52 11.1 32 -0.1 46 46 W 5 7 29.96 1015 10 16 N/A
12:35 am 00:35 Clear 55 12.7 30 -1.3 38 38 W 3 6 29.95 1014 10 16 N/A
12:55 am 00:55 Clear 56 13.5 29 -1.5 36 36 N N/A 29.94 1014 10 16 N/A
1:15 am 01:15 Clear 58 14.5 29 -1.6 33 33 N N/A 29.93 1014 10 16 N/A
1:35 am 01:35 Clear 56 13.3 29 -1.9 35 35 N N/A 29.93 1014 10 16 N/A
1:55 am 01:55 Clear 51 10.6 29 -1.5 43 43 N N/A 29.96 1014 10 16 N/A
2:15 am 02:15 Clear 47 8.6 30 -1 51 51 NW 3 6 29.99 1015 10 16 N/A
2:35 am 02:35 Clear 49 9.4 30 -1.2 48 48 NW 3 6 29.98 1015 10 16 N/A
2:55 am 02:55 Clear 49 9.5 29 -1.5 47 47 NW 6 9 29.97 1015 10 16 N/A
3:15 am 03:15 Clear 50 10 29 -1.8 44 44 N N/A 29.96 1015 10 16 N/A
3:35 am 03:35 Clear 49 9.7 29 -1.5 46 46 N N/A 29.96 1014 10 16 N/A
3:55 am 03:55 Clear 46 7.5 30 -1.1 55 55 WNW 3 6 29.98 1015 10 16 N/A
4:15 am 04:15 Clear 47 8.6 29 -1.5 49 49 WSW 3 6 29.98 1015 10 16 N/A
4:35 am 04:35 Clear 46 8 29 -1.4 52 52 N N/A 29.97 1015 10 16 N/A
4:55 am 04:55 Clear 44 6.5 29 -1.7 56 56 N N/A 29.98 1015 10 16 N/A
5:15 am 05:15 Clear 43 6.2 30 -1.1 60 60 N N/A 29.99 1015 10 16 N/A
5:35 am 05:35 Clear 42 5.7 30 -1.2 62 62 WNW 5 7 30.00 1016 10 16 N/A
5:55 am 05:55 Clear 44 6.9 30 -1.2 57 57 W 3 6 29.99 1016 10 16 N/A
6:15 am 06:15 Clear 41 5.1 30 -1.2 64 64 SW 5 7 30.03 1017 10 16 N/A
6:35 am 06:35 Clear 46 7.7 28 -2 51 51 W 5 7 29.99 1016 10 16 N/A
6:55 am 06:55 Clear 47 8.1 28 -2.2 49 49 WNW 5 7 29.99 1016 10 16 N/A
7:15 am 07:15 Sunny 47 8.5 28 -2.3 47 47 WNW 6 9 29.99 1015 10 16 N/A
7:35 am 07:35 Sunny 46 7.8 28 -2.2 50 50 NW 7 11 29.99 1016 10 16 N/A
7:55 am 07:55 Sunny 47 8.4 29 -1.5 50 50 NW 8 13 30.00 1016 10 16 N/A
8:15 am 08:15 Sunny 51 10.3 29 -1.5 44 44 NW 7 11 29.99 1016 10 16 N/A
8:35 am 08:35 Sunny 51 10.7 30 -1.2 44 44 N N/A 30.00 1016 10 16 N/A
8:55 am 08:55 Sunny 57 13.7 29 -1.4 35 35 WNW 5 7 29.97 1015 10 16 N/A
9:15 am 09:15 Sunny 60 15.4 31 -0.5 34 34 WNW 5 7 29.97 1015 10 16 N/A
9:35 am 09:35 Sunny 64 17.8 32 undefined 30 30 W 6 9 29.95 1014 10 16 N/A
9:55 am 09:55 Sunny 66 18.8 32 undefined 28 28 WNW 5 7 29.94 1014 10 16 N/A
10:15 am 10:15 Sunny 69 20.7 32 0.1 25 25 W 5 7 29.91 1013 10 16 N/A
10:35 am 10:35 Sunny 73 22.5 31 -0.5 22 22 WNW 8 13 29.90 1012 10 16 N/A
10:55 am 10:55 Sunny 75 24.1 30 -0.9 19 19 WNW 7 11 29.88 1012 10 16 N/A
11:15 am 11:15 Sunny 73 23 32 undefined 22 22 W 8 13 29.89 1012 10 16 N/A
11:35 am 11:35 Sunny 74 23.5 32 undefined 21 21 WSW 8 13 29.90 1012 10 16 N/A
11:55 am 11:55 Sunny 76 24.5 30 -0.9 19 19 W 7 11 29.88 1012 10 16 N/A
12:15 pm 12:15 Sunny 78 25.8 31 -0.6 18 18 W 9 15 29.86 1011 10 16 N/A
12:35 pm 12:35 Sunny 80 26.9 31 -0.6 16 16 W 7 11 29.85 1011 10 16 N/A
12:55 pm 12:55 Sunny 80 26.8 30 -1 16 16 W 7 11 29.84 1011 10 16 N/A
1:15 pm 13:15 Sunny 81 27.2 31 -0.6 16 16 WNW 7 11 29.83 1010 10 16 N/A
1:35 pm 13:35 Sunny 82 27.8 31 -0.4 16 16 NW 3 6 29.82 1010 10 16 N/A
1:55 pm 13:55 Sunny 82 27.9 31 -0.3 16 16 W 7 11 29.82 1010 10 16 N/A
2:15 pm 14:15 Sunny 83 28.1 31 -0.3 16 16 WSW 6 9 29.82 1010 10 16 N/A
2:35 pm 14:35 Sunny 82 27.9 31 -0.3 16 16 SW 7 11 29.81 1010 10 16 N/A
2:55 pm 14:55 Sunny 83 28.2 32 -0.1 16 16 WSW 7 11 29.81 1010 10 16 N/A
3:15 pm 15:15 Sunny 83 28.1 32 undefined 16 16 WSW 7 11 29.81 1010 10 16 N/A
3:35 pm 15:35 Sunny 82 28 32 -0.1 16 16 SW 8 13 29.81 1010 10 16 N/A
3:55 pm 15:55 Sunny 82 27.6 32 -0.1 16 16 SW 8 13 29.82 1010 10 16 N/A
4:15 pm 16:15 Sunny 81 27.1 32 -0.1 17 17 SW 7 11 29.83 1010 10 16 N/A
4:35 pm 16:35 Sunny 80 26.5 31 -0.3 17 17 SW 6 9 29.83 1010 10 16 N/A
4:55 pm 16:55 Sunny 78 25.4 31 -0.3 18 18 N 3 6 29.85 1011 10 16 N/A
5:15 pm 17:15 Sunny 74 23.6 32 undefined 21 21 N N/A 29.88 1012 10 16 N/A
5:35 pm 17:35 Clear 71 21.7 32 undefined 24 24 N N/A 29.90 1013 10 16 N/A
5:55 pm 17:55 Clear 70 20.9 32 undefined 25 25 N N/A 29.92 1013 10 16 N/A
6:15 pm 18:15 Clear 65 18.4 32 undefined 29 29 N N/A 29.94 1014 10 16 N/A
6:35 pm 18:35 Clear 69 20.6 32 undefined 25 25 S 5 7 29.92 1013 10 16 N/A
6:55 pm 18:55 Clear 59 15.1 31 -0.3 35 35 N N/A 29.98 1015 10 16 N/A
7:15 pm 19:15 Clear 58 14.3 31 -0.4 37 37 N N/A 29.99 1015 10 16 N/A
7:35 pm 19:35 Clear 57 13.8 31 -0.5 38 38 N N/A 29.99 1016 10 16 N/A
7:55 pm 19:55 Clear 59 14.8 31 -0.3 36 36 N N/A 29.98 1015 10 16 N/A
8:15 pm 20:15 Clear 60 15.5 32 -0.2 34 34 S 7 11 29.99 1016 10 16 N/A
8:35 pm 20:35 Clear 56 13.1 32 -0.2 40 40 S 7 11 30.02 1016 10 16 N/A
8:55 pm 20:55 Clear 56 13.1 31 -0.7 39 39 N N/A 30.02 1016 10 16 N/A
9:15 pm 21:15 Clear 50 10 31 -0.5 48 48 N N/A 30.04 1017 10 16 N/A
9:35 pm 21:35 Clear 47 8.3 31 -0.6 54 54 WNW 3 6 30.09 1019 10 16 N/A
9:55 pm 21:55 Clear 47 8.2 31 -0.7 54 54 N N/A 30.09 1019 10 16 N/A
10:15 pm 22:15 Clear 47 8.1 31 -0.6 55 55 NNW 5 7 30.10 1019 10 16 N/A
10:35 pm 22:35 Clear 50 9.9 31 -0.5 49 49 NNW 6 9 30.09 1019 10 16 N/A
10:55 pm 22:55 Clear 49 9.7 31 -0.6 49 49 NNW 5 7 30.10 1019 10 16 N/A
11:15 pm 23:15 Clear 51 10.6 31 -0.8 45 45 N 7 11 30.10 1019 10 16 N/A
11:35 pm 23:35 Clear 51 10.8 32 -0.1 47 47 N 10 17 30.10 1019 10 16 N/A
11:55 pm 23:55 Clear 53 11.9 32 undefined 44 44 NNW 8 13 30.09 1019 10 16 N/A

Powered by AerisWeather